Location: �mondeville
(49.4591°N, 1.3431°W)
Time: 09:51:00
(UTC+00:00)

RESURS DK-1 - Pass Details

Date: 22 October 2019
Orbit: 558 x 560 km, 69.9° (Epoch: 17 November)

Event Time Altitude Azimuth Distance (km) Brightness Sun altitude
Exits shadow 05:20:13 14° 234° (SW) 1,582 4.2 -13.1°
Maximum altitude 05:23:31 47° 306° (NW) 746 2.6 -12.6°
Drops below altitude 10° 05:27:32 10° 21° (NNE) 1,855 5.2 -11.9°
Sets 05:29:49 0° 27° (NNE) 2,754 6.2 -11.6°
